Location: Morrison Observatory
(41.7012°N, 86.2315°W)
Time: 15:32:54
(UTC-04:00)

Daily predictions for brighter satellites

Satellite Brightness Start Highest point End
(mag) Time Altitude Azimuth Time Altitude Azimuth Time Altitude Azimuth
Tsikada Rocket 4.2 21:31:32 10° N 21:37:59 88° W 21:44:24 10° S
ATLAS CENTAUR R/B 4.0 21:35:53 10° WNW 21:39:14 20° WSW 21:42:40 10° SSW
Meteor 1-12 Rocket 4.4 21:35:43 10° N 21:41:42 73° E 21:47:42 10° SSE
Cosmos 1242 Rocket 2.6 21:38:24 10° N 21:42:03 62° E 21:45:35 10° SSE
Meteor 2-4 Rocket 4.2 21:38:09 10° SSE 21:43:09 39° E 21:48:18 10° NNE
ARGOS 4.1 21:38:33 10° SE 21:43:18 33° ENE 21:48:04 10° N
Okean 1 4.0 21:41:36 10° SSW 21:45:36 60° W 21:49:38 10° N
Cosmos 1544 Rocket 4.5 21:43:33 10° NNE 21:47:33 32° ENE 21:51:33 10° SE
Cosmos 2150 Rocket 4.5 21:42:21 10° N 21:47:35 49° ENE 21:52:40 10° SE
Thor Agena Rocket 3.8 21:42:28 10° NNE 21:47:45 77° WNW 21:52:56 10° SSW
YAOGAN 6 3.7 21:44:13 10° S 21:47:46 46° W 21:51:21 10° NNW
USA 186 3.2 21:45:26 10° S 21:48:32 41° W 21:51:48 10° NNW
NOAA 11 4.2 21:45:43 10° SSE 21:51:11 79° ENE 21:56:39 10° N
Cosmos 2322 Rocket 2.2 21:45:44 10° NNW 21:51:23 87° ENE 21:57:00 10° SSE
Shenzhou-11 Module 1.9 21:48:41 10° W 21:51:39 69° SSW 21:54:34 10° ESE
Abrixas rocket 3.7 21:50:20 10° W 21:53:22 37° NNW 21:56:25 10° NE
Lacrosse 5 rocket 2.4 21:49:15 10° NNW 21:53:23 39° NE 21:57:16 10° ESE
Spot 2 Rocket 3.5 21:49:36 10° SSE 21:54:38 84° ENE 21:59:42 10° NNW
SJ 16-02 2.9 21:51:39 10° N 21:55:07 22° ENE 21:58:34 10° ESE
Cosmos 468 Rocket 4.5 21:51:12 10° SSW 21:56:26 68° WNW 22:01:39 10° NNE
Cosmos 1937 Rocket 3.5 21:53:27 10° NNW 21:58:37 86° ENE 22:03:46 10° SSE
Cosmos 1763 Rocket 3.5 21:53:47 10° SSW 21:59:05 82° ESE 22:04:24 10° NNE
Tiangong 2 1.3 21:55:58 10° W 21:59:08 70° N 22:02:17 10° E
SL-16 R/B 2.4 21:56:37 10° NNW 22:02:18 73° WSW 22:07:55 10° SSE
Cosmos 1939 Rocket 4.3 21:58:50 10° SSW 22:02:42 39° W 22:06:38 10° NNW
Cosmos 1536 Rocket 4.5 22:01:29 10° SSE 22:05:21 30° E 22:09:16 10° NNE
ISS -0.9 22:03:10 10° WNW 22:05:35 19° NNW 22:08:00 10° NNE
BREEZE M DEB (TANK) 3.5 21:53:33 10° WNW 22:05:58 86° NNE 22:09:21 13° ESE
Cosmos 841 Rocket 3.5 22:01:23 10° S 22:06:33 66° ESE 22:11:48 10° NNE
Cosmos 292 Rocket 3.8 22:02:14 10° S 22:06:55 61° ESE 22:11:37 10° NNE
Cosmos 2233 Rocket 4.3 22:02:38 10° SSW 22:08:46 71° W 22:15:00 10° N
Cosmos 2298 Rocket 4.0 22:03:57 10° NNW 22:09:17 84° ENE 22:14:31 10° SSE
Resurs 01 Rocket 2.8 22:10:57 10° S 22:15:06 41° W 22:19:17 10° NNW
ATLAS CENTAUR R/B 4.4 22:09:06 10° SW 22:15:37 82° NW 22:36:24 10° NE
USA 234 3.2 22:09:17 10° NE 22:15:48 65° SE 22:22:19 10° SW
CZ-4C R/B 3.8 22:09:41 10° NNW 22:16:12 38° NE 22:23:08 11° ESE
Cosmos 1340 Rocket 2.8 22:12:55 10° S 22:16:56 65° E 22:20:59 10° NNE
USA 32 4.0 22:16:48 10° N 22:22:03 74° E 22:27:06 11° S
SL-08 RB Rocket 3.8 22:24:27 16° SSE 22:27:57 60° ENE 22:32:29 10° N
ERS-1 Rocket 3.2 22:27:40 17° SE 22:31:20 54° ENE 22:36:14 10° N
CENTAUR R/B 2.8 22:33:02 10° SW 22:38:59 73° NW 22:45:54 10° NNE
Cosmos 2360 Rocket 2.2 22:34:06 10° NNW 22:39:47 87° WSW 22:43:55 19° SSE
Cosmos 1025 Rocket 3.8 22:40:14 23° SE 22:42:08 34° E 22:46:06 10° NNE
Cosmos 2219 Rocket 3.3 22:37:25 10° N 22:42:20 30° NE 22:45:43 17° ESE
Meteor 1-15 Rocket 4.2 22:38:11 10° N 22:43:53 70° ENE 22:47:48 20° SSE
Cosmos 1356 3.8 22:40:48 10° SSW 22:44:15 66° WNW 22:47:42 10° N
Iridium 90 4.0 22:44:44 37° ENE 22:44:44 37° ENE 22:46:31 10° NNE
MetOp-A 4.3 22:43:50 14° S 22:48:25 70° WSW 22:53:47 10° NNW
Aureole 2 Rocket 3.7 22:47:32 10° NW 22:50:01 26° WSW 22:51:29 17° SSW
Okean 2 3.4 22:53:27 26° SSE 22:55:37 61° E 22:59:44 10° NNE
Meteor 1-29 4.3 22:54:39 10° NE 22:57:17 24° E 22:57:17 24° E
Cosmos 1455 Rocket 4.1 22:53:36 10° NNW 22:57:44 42° W 23:01:30 12° SSW
SPOT 1/Viking Rocket 3.7 22:55:11 26° SE 22:58:00 58° ENE 23:03:04 10° N
Cosmos 1125 Rocket 3.5 22:54:06 10° NNW 22:59:22 75° ENE 23:02:08 28° SSE
Cosmos 2034 Rocket 3.9 22:54:59 11° S 23:00:59 89° W 23:07:11 10° N
H-2A R/B 2.3 22:57:46 19° S 23:01:20 64° WSW 23:06:23 10° NNW
USA 245 3.4 23:00:38 31° S 23:02:24 81° WSW 23:07:01 10° NNW
Helios 1A 3.0 23:00:58 33° SSE 23:02:44 69° ENE 23:06:54 10° N
Cosmos 1464 Rocket 4.4 22:56:49 10° SSW 23:03:07 64° W 23:09:29 10° N
GPS 2-05 Rocket1 4.4 23:00:36 10° SW 23:02:11 20° SSW 23:02:11 20° SSW
Landsat 7 4.1 23:02:11 30° SE 23:04:16 52° ENE 23:08:54 10° N
Cosmos 1356 Rocket 3.4 23:07:09 31° S 23:09:08 72° E 23:13:26 10° NNE
SL-16 R/B 4.5 23:10:25 10° NNE 23:13:01 13° NE 23:15:35 10° ENE
Cosmos 2333 Rocket 2.8 23:07:36 10° NNW 23:13:07 47° ENE 23:15:46 28° ESE
COSMOS 2455 4.0 23:14:03 24° ESE 23:14:16 24° ESE 23:18:55 10° NE
COSMOS 2428 2.7 23:10:23 10° NNW 23:16:05 77° ENE 23:18:42 33° SE
Spot 1 4.1 23:19:22 42° ESE 23:20:21 55° ENE 23:24:21 10° N
Terra 2.1 23:21:33 37° SE 23:23:05 53° ENE 23:27:43 10° N
Helios 1B rocket 2.3 23:19:10 10° NNE 23:23:19 75° ESE 23:24:33 44° S
DMSP B5D2-2 4.3 23:20:27 10° N 23:25:44 73° WNW 23:29:45 18° SSW
Cosmos 1634 Rocket 4.1 23:23:14 31° SSE 23:26:12 59° E 23:32:24 10° NNE
Shenzhou-11 Module 4.5 23:25:23 10° WSW 23:26:08 13° WSW 23:26:08 13° WSW
SPOT 5 2.8 23:26:23 36° S 23:28:06 68° WSW 23:32:43 10° NNW
Cosmos 2297 Rocket 3.2 23:29:00 26° ESE 23:29:05 26° ESE 23:33:42 10° NE
Abrixas rocket 4.5 23:27:39 10° NW 23:30:20 23° N 23:32:55 11° ENE
Cosmos 1892 Rocket 4.1 23:31:41 38° E 23:31:53 39° E 23:35:56 10° NNE
Lacrosse 5 rocket 2.5 23:28:45 10° WNW 23:32:28 29° SW 23:33:08 28° SW
Cosmos 2227 Rocket 2.9 23:32:28 32° ESE 23:32:51 32° ESE 23:37:48 10° NE
SJ 16-02 2.6 23:29:45 10° NW 23:33:48 35° W 23:35:37 24° SW
Tiangong 2 1.6 23:32:46 10° W 23:35:15 51° W 23:35:15 51° W
IGS 5A 3.3 23:35:34 57° SSE 23:36:23 84° ENE 23:40:34 10° N
Cosmos 2228 3.7 23:34:06 10° N 23:38:08 38° ENE 23:38:31 37° E
Cosmos 2237 Rocket 2.9 23:34:26 10° NNW 23:39:51 43° ENE 23:41:55 31° ESE
ISS -0.8 23:41:01 10° NNW 23:43:00 15° N 23:44:59 10° NE
Cosmos 1953 4.4 23:41:10 10° NE 23:43:28 15° ENE 23:43:28 15° ENE
Cosmos 1066 Rocket 4.4 23:44:56 26° SSW 23:48:00 65° WNW 23:53:27 10° N
Okean 1-7 Rocket 3.7 23:48:21 47° SSW 23:49:37 78° W 23:54:11 10° N
Cosmos 1726 Rocket 3.5 23:45:32 10° N 23:49:57 70° E 23:50:28 63° SE
Cosmos 1544 3.3 23:47:42 10° NNW 23:51:23 60° W 23:51:34 59° WSW
